Regional Weather Roundup
Issued by NWS

Home | Current Version | Previous Version | Text Only | Print | Product List | Glossary On
Versions: 1 2 3 4 5 6 7 8 9 10 11 12 13 14 15 16 17 18 19 20 21 22 23 24 25 26 27 28 29 30 31 32 33 34 35 36 37 38 39 40 41 42 43 44 45 46 47 48 49 50
000
ASUS45 KABQ 281201
RWRNM
WEATHER ROUNDUP FOR NEW MEXICO
NATIONAL WEATHER SERVICE ALBUQUERQUE NM
600 AM MDT THU AUG 28 2014

NOTE: "FAIR" MEANS FEW OR NO CLOUDS BELOW 12,000 FEET AGL WITH NO
       SIGNIFICANT WEATHER OR OBSTRUCTIONS TO VISION.

      THIS PRODUCT IS RELEASED AS TWO VERSIONS.  ONE VERSION NEAR
      THE TOP OF THE HOUR CONTAINING PRELIMINARY DATA FROM ALBUQUERQUE
      AND OTHER STATIONS.  A FINAL VERSION WITH ADDITIONAL DATA IS
      ISSUED ABOUT 10 MINUTES AFTER THE HOUR.

NMZ501-503-504-510>518-281300-
NORTHWEST PLATEAU/NORTHCENTRAL MOUNTAINS

CITY           SKY/WX    TMP DP  RH WIND       PRES   REMARKS
FARMINGTON     CLEAR     49  46  90 N3        30.25S
6HR MIN TEMP:  47; 6HR MAX TEMP:  56;

LOS ALAMOS     CLEAR     54  38  55 SE3       30.29F
SANTA FE       CLEAR     48  42  80 S3        30.24F
6HR MIN TEMP:  48; 6HR MAX TEMP:  56;

ANGEL FIRE     FAIR      37  34  86 S5        30.34F WCI  34

$$
NMZ402-403-502-505>509-281300-
WESTCENTRAL MOUNTAINS/SOUTHWEST MOUNTAINS

CITY           SKY/WX    TMP DP  RH WIND       PRES   REMARKS
GALLUP         CLEAR     45  39  79 E3        30.31S
6HR MIN TEMP:  43; 6HR MAX TEMP:  56;

SILVER CITY    CLEAR     59  50  72 N8        30.23R

$$
NMZ407-409-411-412-281300-
SOUTHERN DESERTS

CITY           SKY/WX    TMP DP  RH WIND       PRES   REMARKS
LORDSBURG      FAIR      61  54  77 CALM      30.14S
DEMING         CLEAR     61  56  83 SW3       30.14R
6HR MIN TEMP:  61; 6HR MAX TEMP:  72;

LAS CRUCES     CLEAR     62  58  85 CALM      30.15R
HOLLOMAN AFB   CLEAR     62  59  91 N6        30.10S
ALAMOGORDO     CLEAR     59  59 100 CALM      30.13S
T OR C         CLEAR     63  53  70 NW7       30.16R
6HR MIN TEMP:  63; 6HR MAX TEMP:  67; 6HR PCP: TRACE;


$$
NMZ519>523-281300-
CENTRAL VALLEYS/CENTRAL HIGHLANDS

CITY           SKY/WX    TMP DP  RH WIND       PRES   REMARKS
ALBUQUERQUE    CLEAR     62  44  51 NE3       30.22F
6HR MIN TEMP:  61; 6HR MAX TEMP:  69;

DOUBLE EAGLE   PTCLDY    54  46  76 N5        30.25S
CLINES CORNERS CLEAR     50  41  71 NW9       30.27S
6HR MIN TEMP:  50; 6HR MAX TEMP:  56;

BELEN          FAIR      55  46  73 CALM      30.21S
6HR MIN TEMP:  54; 6HR MAX TEMP:  63;

SOCORRO        FAIR      61  55  80 CALM      30.18S
6HR MIN TEMP:  60; 6HR MAX TEMP:  67;


$$
NMZ524>526-539-540-281300-
SOUTHCENTRAL MOUNTAINS

CITY           SKY/WX    TMP DP  RH WIND       PRES   REMARKS
RUIDOSO        NOT AVBL

$$
NMZ527>531-281300-
NORTHEAST HIGHLANDS/NORTHEAST PLAINS

CITY           SKY/WX    TMP DP  RH WIND       PRES   REMARKS
LAS VEGAS      CLEAR     50  38  63 E6        30.25S
6HR MIN TEMP:  48; 6HR MAX TEMP:  58;

RATON          CLEAR     48  39  71 E7        30.19S
6HR MIN TEMP:  47; 6HR MAX TEMP:  59;

CLAYTON        CLEAR     61  51  70 NW14      30.11S
6HR MIN TEMP:  60; 6HR MAX TEMP:  64;


$$
NMZ532>537-281300-
EASTCENTRAL PLAINS

CITY           SKY/WX    TMP DP  RH WIND       PRES   REMARKS
TUCUMCARI      PTCLDY    63  55  75 NW7       30.06S
6HR MIN TEMP:  61; 6HR MAX TEMP:  71;

CANNON AFB     MOCLDY    63  63  98 N2        30.09F
6HR MIN TEMP:  63; 6HR MAX TEMP:  69;

CLOVIS AIRPORT   N/A     64  55  72 W3        30.11S

$$
NMZ028-029-538-281300-
SOUTHEAST PLAINS

CITY           SKY/WX    TMP DP  RH WIND       PRES   REMARKS
ROSWELL        PTCLDY    69  60  73 CALM      30.06R
6HR MIN TEMP:  66; 6HR MAX TEMP:  73;

CARLSBAD       CLEAR     69  62  78 NW6       30.03R
6HR MIN TEMP:  69; 6HR MAX TEMP:  76;

HOBBS          CLEAR     68  64  88 CALM      30.06


$$



USA.gov is the U.S. government's official web portal to all federal, state and local government web resources and services.